Regional Weather Roundup
Issued by NWS Green Bay, WI

Home | Current Version | Previous Version | Text Only | Print | Product List | Glossary On
Versions: 1 2 3 4 5 6 7 8 9 10 11 12 13 14 15 16 17 18 19 20 21 22 23 24 25 26 27 28 29 30 31 32 33 34 35 36 37 38 39 40 41 42 43 44 45 46 47 48 49 50
000
ASUS43 KGRB 310211
RWRGRB

NORTH-CENTRAL AND NORTHEAST WISCONSIN REGIONAL WEATHER ROUNDUP
NATIONAL WEATHER SERVICE GREEN BAY WI
900 PM CDT MON MAY 30 2016

WIZ005-009-010>012-018-019-310300-
NORTH CENTRAL WISCONSIN

CITY           SKY/WX    TMP DP  RH WIND       PRES   REMARKS
IRONWOOD       PTCLDY    64  52  63 E5        29.95S
MANITOWISH WTR NOT AVBL
ARBOR VITAE    PTCLDY    63  55  76 CALM      29.99R
EAGLE RIVER      N/A     60  52  74 CALM      29.99R
LAND O LAKES   CLEAR     65  47  53 NE5       30.01R
RHINELANDER    PTCLDY    62  54  74 CALM      29.99S
PHILLIPS       CLOUDY    66  57  73 CALM      29.97S
ANTIGO         MOCLDY    64  58  80 CALM      30.00R
TOMAHAWK       CLOUDY    65  55  69 CALM      29.98S
MERRILL        MOCLDY    66  57  71 CALM      29.99R
$$

WIZ013-073-310300-
NORTHEAST WISCONSIN

CITY           SKY/WX    TMP DP  RH WIND       PRES   REMARKS
IRON MOUNTAIN  CLEAR     64  47  53 CALM      29.97R
MARINETTE      CLEAR     66  54  63 CALM      29.96S
OCONTO         CLEAR     63  62  98 CALM      29.96R
$$

WIZ017-030-035>037-045-310300-
CENTRAL WISCONSIN

CITY           SKY/WX    TMP DP  RH WIND       PRES   REMARKS
MEDFORD        CLEAR     63  59  87 CALM      29.98S
WAUSAU         CLEAR     71  51  49 CALM      29.96S
MOSINEE        CLEAR     68  48  49 CALM      29.99S
MARSHFIELD     CLEAR     71  53  52 E3        29.97R
WISC RAPIDS    CLEAR     65  53  65 SE3       29.99R
STEVENS POINT  CLEAR     65  54  67 CALM      29.99R
WAUPACA        CLEAR     69  57  65 CALM      29.98R
SHAWANO        CLEAR     68  55  62 CALM      29.97R
CLINTONVILLE   CLEAR     68  54  60 CALM      29.98R
WAUTOMA        CLEAR    N/A N/A N/A CALM      29.98R
$$

WIZ038-039-048-051-310300-
FOX VALLEY

CITY           SKY/WX    TMP DP  RH WIND       PRES   REMARKS
NWS GREEN BAY  CLEAR     70  61  73 SW3       29.97S
APPLETON       PTCLDY    70  50  49 CALM      29.97R
OSHKOSH        CLEAR     69  54  58 CALM      29.98S
FOND DU LAC    CLEAR     68  56  65 CALM      29.98R
$$

WIZ022-050-052-310300-
EAST CENTRAL WISCONSIN

CITY           SKY/WX    TMP DP  RH WIND       PRES   REMARKS
EPHRAIM        FAIR      63  56  79 S3        29.96S
STURGEON BAY   NOT AVBL
MANITOWOC      CLEAR     60  55  83 CALM      29.99S
SHEBOYGAN      CLEAR     64  55  72 S6        30.00R
$$

LMZ563-521-522-541>543-310300-
LAKESHORE

STATION/POSITION TIME  TEMP    WIND        PRES    VSBY  WAVE
                       AIR SEA DIR/SP/G                  HT/PER
                 (UTC) (F)     (DEG/KT/KT) (MB)    (MI)  (FT/S)
SHEBOYGAN LKSHOR 0200   65     180/  8/  9 1015.9R
KEWAUNEE LKSHORE 0100                      1014.5
NORTHPORT PIER   0100   67     170/  4/  8 1014.2R
N MID LAKE BUOY  0150   54 50  220/  6/ 10 1014.6R         1/ 3
CHAMBERS ISLAND  0140   66     170/  4/  6 1014.6R
MENOMINEE LKSHOR 0100                      1013.2
$$




USA.gov is the U.S. government's official web portal to all federal, state and local government web resources and services.